Regional Weather Roundup
Issued by NWS Jackson, KY

Home | Current Version | Previous Version | Graphics & Text | Print | Product List | Glossary On
Versions: 1 2 3 4 5 6 7 8 9 10 11 12 13 14 15 16 17 18 19 20 21 22 23 24 25 26 27 28 29 30 31 32 33 34 35 36 37 38 39 40 41 42 43 44 45 46 47 48 49 50
000
ASUS43 KJKL 241110
RWRJKL

EAST KENTUCKY HOURLY WEATHER ROUNDUP
NATIONAL WEATHER SERVICE JACKSON KY
600 AM EST FRI NOV 24 2017

NOTE: "FAIR" INDICATES FEW OR NO CLOUDS BELOW 12,000 FEET WITH
NO SIGNIFICANT WEATHER AND/OR OBSTRUCTIONS TO VISIBILITY.

* THESE REPORTS ARE NOT UNDER NWS QUALITY CONTROL AND MAY NOT
  REPORT WEATHER SUCH AS PRECIPITATION AND FOG.

KYZ079-080-083-085-087-088-110-112-115-119-120-241200
...EASTERN KENTUCKY...

CITY           SKY/WX    TMP DP  RH WIND       PRES   REMARKS
JACKSON        CLOUDY    34  21  59 S3        30.01S
LONDON         CLEAR     27  23  85 CALM      30.02S
SOMERSET*      CLOUDY    28  27  93 CALM      30.05R
MONTICELLO*    CLOUDY    23  22  96 W8        30.05R WCI  14
WILLIAMSBURG*  SUNNY     28  27  93 CALM      30.02S
MIDDLESBORO*   CLEAR     27  26  98 CALM      30.06S
HARLAN APT*    CLOUDY    28  27  93 CALM      30.04S
PIKE CO APT*     N/A     32  23  70 S5        30.02R WCI  27
BIG SANDY APT* CLOUDY    30  24  80 CALM      30.02S
MOREHEAD APT*  CLOUDY    27  21  80 S7        30.03S WCI  19
$$

KYZ035-036-041-042-044-050-067-078-099-241200
...CENTRAL KENTUCKY...

CITY           SKY/WX    TMP DP  RH WIND       PRES   REMARKS
MT STERLING*   CLOUDY    28  25  86 SW5       30.03S WCI  23
DANVILLE*      CLOUDY    27  23  86 S3        30.02S
LEXINGTON      CLOUDY    27  22  81 SE6       30.00F WCI  20
FRANKFORT      CLOUDY    27  21  78 CALM      29.98F
LOUISVILLE     CLOUDY    32  25  75 SE6       29.98F WCI  26
LEBANON*         N/A     34  23  64 S6        30.00S WCI  29
GLASGOW*       CLOUDY    27  27 100 CALM      30.00F
BOWLING GREEN  CLOUDY    29  26  89 CALM      30.01S
$$

KYZ091>093-OHZ055-061-077-WVZ005-015-034-035-042-241200
...SOUTHERN OHIO/WEST VIRGINIA...

CITY           SKY/WX    TMP DP  RH WIND       PRES   REMARKS
COVINGTON      CLOUDY    32  24  72 S8        29.96F WCI  25
COLUMBUS       CLOUDY    29  24  82 CALM      29.98S
DAYTON         CLOUDY    32  25  75 S8        29.95F WCI  25
WILMINGTON     CLEAR     31  24  75 S6        29.97S WCI  25
HUNTINGTON     CLOUDY    25  22  88 CALM      30.02F
CHARLESTON     CLOUDY    25  23  92 CALM      30.03S
PINEVILLE*       N/A     25  22  89 MISG      30.06F
BECKLEY        CLEAR     29  17  61 SE7       29.99S WCI  22
BLUEFIELD      CLEAR     36  19  50 CALM      29.99F
LOGAN CO APT*    N/A     34  21  60 CALM      30.01S
$$

VAZ002-007-008-TNZ017-027-036-066-071-241200
...SOUTHWEST VIRGINIA/EAST TENNESSEE...

CITY           SKY/WX    TMP DP  RH WIND       PRES   REMARKS
WISE*          CLOUDY    34  27  75 SW3       30.01S
JONESVILLE*      N/A     25  25 100 CALM      30.06S
ABINGDON*      CLEAR     32  30  92 CALM      30.01S
BRISTOL        CLEAR     29  28  96 CALM      30.03F
MORRISTOWN*    SUNNY     32  30  93 N3        30.02R
SEVIERVILLE*   SUNNY     28  28 100 CALM      30.02F
KNOXVILLE      CLEAR     33  33 100 N3        30.01F
LAFOLLETTE*    SUNNY     28  28 100 CALM      30.06F
OAK RIDGE      MIX PCPN  30  30 100 CALM      30.05S VSB 3/4
CROSSVILLE     CLOUDY    29  24  82 CALM      30.01S
NASHVILLE      CLOUDY    29  25  85 S5        30.01F WCI  24
$$

...KEY TO REMARKS...
VSB - VISIBILITY IN MILES
WCI - WIND CHILL INDEX
HX  - HEAT INDEX

$$



USA.gov is the U.S. government's official web portal to all federal, state and local government web resources and services.